Time,TemperatureF,DewpointF,PressureIn,WindDirection,WindDirectionDegrees,WindSpeedMPH,WindSpeedGustMPH,Humidity,HourlyPrecipIn,Conditions,Clouds,dailyrainin,SoftwareType,DateUTC
2013-01-18 00:02:00,36.5,31.8,30.49,NE,39,0.0,0.0,83,0.00,,,0.00,meteohub,2013-01-18 06:02:00,
2013-01-18 00:07:00,36.3,31.6,30.49,NE,39,0.0,0.0,83,0.00,,,0.00,meteohub,2013-01-18 06:07:00,
2013-01-18 00:12:00,36.3,31.6,30.49,NE,39,0.0,0.0,83,0.00,,,0.00,meteohub,2013-01-18 06:12:00,
2013-01-18 00:17:00,36.1,31.8,30.49,NE,39,0.0,0.0,84,0.00,,,0.00,meteohub,2013-01-18 06:17:00,
2013-01-18 00:22:00,36.0,31.3,30.49,NE,39,0.0,0.0,83,0.00,,,0.00,meteohub,2013-01-18 06:22:00,
2013-01-18 00:27:00,36.0,31.6,30.49,NE,39,0.0,0.0,84,0.00,,,0.00,meteohub,2013-01-18 06:27:00,
2013-01-18 00:32:00,35.8,31.5,30.50,NE,39,0.0,0.0,84,0.00,,,0.00,meteohub,2013-01-18 06:32:00,
2013-01-18 00:37:00,35.6,31.3,30.49,NE,39,0.0,0.0,84,0.00,,,0.00,meteohub,2013-01-18 06:37:00,
2013-01-18 00:42:00,35.4,31.1,30.50,NE,39,0.0,0.0,84,0.00,,,0.00,meteohub,2013-01-18 06:42:00,
2013-01-18 00:47:00,35.2,30.9,30.50,NE,39,0.0,0.0,84,0.00,,,0.00,meteohub,2013-01-18 06:47:00,
2013-01-18 00:52:00,35.2,31.1,30.49,NE,39,0.0,0.0,85,0.00,,,0.00,meteohub,2013-01-18 06:52:00,
2013-01-18 00:57:00,35.1,30.7,30.50,NE,39,0.0,0.0,84,0.00,,,0.00,meteohub,2013-01-18 06:57:00,
2013-01-18 01:03:00,35.1,30.7,30.49,NE,39,0.0,0.0,84,0.00,,,0.00,meteohub,2013-01-18 07:03:00,
2013-01-18 01:08:00,34.9,30.6,30.50,NE,39,0.0,0.0,84,0.00,,,0.00,meteohub,2013-01-18 07:08:00,
2013-01-18 01:13:00,34.7,30.4,30.50,NE,39,0.0,0.0,84,0.00,,,0.00,meteohub,2013-01-18 07:13:00,
2013-01-18 01:19:00,34.5,30.6,30.49,NE,39,0.0,0.0,85,0.00,,,0.00,meteohub,2013-01-18 07:19:00,
2013-01-18 01:24:00,34.3,30.6,30.49,NE,39,0.0,0.0,86,0.00,,,0.00,meteohub,2013-01-18 07:24:00,
2013-01-18 01:29:00,34.3,30.4,30.49,NE,39,0.0,0.0,85,0.00,,,0.00,meteohub,2013-01-18 07:29:00,
2013-01-18 01:34:00,34.2,30.2,30.50,NE,39,0.0,0.0,85,0.00,,,0.00,meteohub,2013-01-18 07:34:00,
2013-01-18 01:40:00,34.2,30.4,30.50,NE,39,0.0,0.0,86,0.00,,,0.00,meteohub,2013-01-18 07:40:00,
2013-01-18 01:45:00,34.0,30.2,30.49,NE,39,0.0,0.0,86,0.00,,,0.00,meteohub,2013-01-18 07:45:00,
2013-01-18 01:50:00,34.0,30.2,30.50,NE,39,0.0,0.0,86,0.00,,,0.00,meteohub,2013-01-18 07:50:00,
2013-01-18 01:55:00,33.8,30.0,30.50,NE,39,0.0,0.0,86,0.00,,,0.00,meteohub,2013-01-18 07:55:00,
2013-01-18 02:01:00,33.8,30.4,30.49,NE,55,0.0,2.0,87,0.00,,,0.00,meteohub,2013-01-18 08:01:00,
2013-01-18 02:06:00,33.8,30.4,30.50,NE,55,0.0,2.0,87,0.00,,,0.00,meteohub,2013-01-18 08:06:00,
2013-01-18 02:11:00,33.8,30.6,30.49,NE,55,0.0,2.0,88,0.00,,,0.00,meteohub,2013-01-18 08:11:00,
2013-01-18 02:16:00,33.6,30.4,30.50,NE,55,0.0,3.0,88,0.00,,,0.00,meteohub,2013-01-18 08:16:00,
2013-01-18 02:22:00,33.6,30.2,30.50,NE,55,0.0,3.0,87,0.00,,,0.00,meteohub,2013-01-18 08:22:00,
2013-01-18 02:27:00,33.6,30.2,30.50,NE,55,0.0,3.0,87,0.00,,,0.00,meteohub,2013-01-18 08:27:00,
2013-01-18 02:32:00,33.4,30.0,30.50,NE,55,0.0,0.0,87,0.00,,,0.00,meteohub,2013-01-18 08:32:00,
2013-01-18 02:37:00,33.4,30.0,30.50,NE,55,0.0,0.0,87,0.00,,,0.00,meteohub,2013-01-18 08:37:00,
2013-01-18 02:42:00,33.4,30.0,30.50,NE,55,0.0,0.0,87,0.00,,,0.00,meteohub,2013-01-18 08:42:00,
2013-01-18 02:47:00,33.3,29.8,30.50,NE,55,0.0,0.0,87,0.00,,,0.00,meteohub,2013-01-18 08:47:00,
2013-01-18 02:52:00,33.3,29.8,30.50,NE,55,0.0,0.0,87,0.00,,,0.00,meteohub,2013-01-18 08:52:00,
2013-01-18 02:58:00,33.1,29.7,30.50,NE,55,0.0,0.0,87,0.00,,,0.00,meteohub,2013-01-18 08:58:00,
2013-01-18 03:03:00,33.1,29.7,30.50,NE,55,0.0,0.0,87,0.00,,,0.00,meteohub,2013-01-18 09:03:00,
2013-01-18 03:08:00,32.9,29.5,30.49,NE,55,0.0,0.0,87,0.00,,,0.00,meteohub,2013-01-18 09:08:00,
2013-01-18 03:13:00,32.7,29.3,30.49,NE,55,0.0,0.0,87,0.00,,,0.00,meteohub,2013-01-18 09:13:00,
2013-01-18 03:19:00,32.5,29.3,30.49,NE,55,0.0,0.0,88,0.00,,,0.00,meteohub,2013-01-18 09:19:00,
2013-01-18 03:24:00,32.5,29.3,30.49,NE,55,0.0,0.0,88,0.00,,,0.00,meteohub,2013-01-18 09:24:00,
2013-01-18 03:29:00,32.5,29.3,30.49,NE,55,0.0,0.0,88,0.00,,,0.00,meteohub,2013-01-18 09:29:00,
2013-01-18 03:35:00,32.4,29.1,30.49,NE,55,0.0,0.0,88,0.00,,,0.00,meteohub,2013-01-18 09:35:00,
2013-01-18 03:40:00,32.4,29.1,30.49,NE,55,0.0,0.0,88,0.00,,,0.00,meteohub,2013-01-18 09:40:00,
2013-01-18 03:45:00,32.2,28.9,30.49,NE,55,0.0,0.0,88,0.00,,,0.00,meteohub,2013-01-18 09:45:00,
2013-01-18 03:50:00,32.2,28.9,30.49,NE,55,0.0,0.0,88,0.00,,,0.00,meteohub,2013-01-18 09:50:00,
2013-01-18 03:56:00,32.0,28.9,30.48,NE,55,0.0,0.0,88,0.00,,,0.00,meteohub,2013-01-18 09:56:00,
2013-01-18 04:01:00,31.8,28.8,30.48,NE,55,0.0,0.0,88,0.00,,,0.00,meteohub,2013-01-18 10:01:00,
2013-01-18 04:06:00,31.8,28.8,30.48,NE,55,0.0,0.0,88,0.00,,,0.00,meteohub,2013-01-18 10:06:00,
2013-01-18 04:11:00,31.6,28.6,30.48,NE,55,0.0,0.0,88,0.00,,,0.00,meteohub,2013-01-18 10:11:00,
2013-01-18 04:17:00,31.6,28.6,30.48,NE,55,0.0,0.0,88,0.00,,,0.00,meteohub,2013-01-18 10:17:00,
2013-01-18 04:22:00,31.5,28.6,30.48,NE,55,0.0,0.0,89,0.00,,,0.00,meteohub,2013-01-18 10:22:00,
2013-01-18 04:27:00,31.3,28.4,30.48,NE,55,0.0,0.0,89,0.00,,,0.00,meteohub,2013-01-18 10:27:00,
2013-01-18 04:32:00,31.3,28.4,30.48,NE,55,0.0,0.0,89,0.00,,,0.00,meteohub,2013-01-18 10:32:00,
2013-01-18 04:37:00,31.3,28.4,30.48,NE,55,0.0,0.0,89,0.00,,,0.00,meteohub,2013-01-18 10:37:00,
2013-01-18 04:42:00,31.1,28.2,30.47,NE,55,0.0,0.0,89,0.00,,,0.00,meteohub,2013-01-18 10:42:00,
2013-01-18 04:47:00,30.9,28.0,30.47,NE,55,0.0,0.0,89,0.00,,,0.00,meteohub,2013-01-18 10:47:00,
2013-01-18 04:52:00,30.9,28.0,30.47,NE,55,0.0,0.0,89,0.00,,,0.00,meteohub,2013-01-18 10:52:00,
2013-01-18 04:57:00,30.7,28.2,30.47,NE,55,0.0,0.0,90,0.00,,,0.00,meteohub,2013-01-18 10:57:00,
2013-01-18 05:02:00,30.7,28.2,30.47,NE,55,0.0,0.0,90,0.00,,,0.00,meteohub,2013-01-18 11:02:00,
2013-01-18 05:07:00,30.7,28.2,30.47,NE,55,0.0,0.0,90,0.00,,,0.00,meteohub,2013-01-18 11:07:00,
2013-01-18 05:13:00,30.6,28.0,30.47,NE,55,0.0,0.0,90,0.00,,,0.00,meteohub,2013-01-18 11:13:00,
2013-01-18 05:18:00,30.6,27.7,30.47,NE,55,0.0,0.0,89,0.00,,,0.00,meteohub,2013-01-18 11:18:00,
2013-01-18 05:23:00,30.6,28.0,30.46,NE,55,0.0,0.0,90,0.00,,,0.00,meteohub,2013-01-18 11:23:00,
2013-01-18 05:29:00,30.4,27.5,30.47,NE,55,0.0,0.0,89,0.00,,,0.00,meteohub,2013-01-18 11:29:00,
2013-01-18 05:34:00,30.4,27.9,30.46,NE,55,0.0,0.0,90,0.00,,,0.00,meteohub,2013-01-18 11:34:00,
2013-01-18 05:39:00,30.2,27.7,30.46,NE,55,0.0,0.0,90,0.00,,,0.00,meteohub,2013-01-18 11:39:00,
2013-01-18 05:45:00,30.2,27.7,30.46,NE,55,0.0,0.0,90,0.00,,,0.00,meteohub,2013-01-18 11:45:00,
2013-01-18 05:50:00,30.0,27.5,30.47,NE,55,0.0,0.0,90,0.00,,,0.00,meteohub,2013-01-18 11:50:00,
2013-01-18 05:55:00,30.0,27.5,30.47,NE,53,0.0,0.0,90,0.00,,,0.00,meteohub,2013-01-18 11:55:00,
2013-01-18 06:01:00,30.0,27.7,30.47,NE,53,0.0,0.0,91,0.00,,,0.00,meteohub,2013-01-18 12:01:00,
2013-01-18 06:06:00,30.2,28.2,30.47,NE,53,0.0,0.0,92,0.00,,,0.00,meteohub,2013-01-18 12:06:00,
2013-01-18 06:11:00,30.2,28.2,30.47,NE,53,0.0,0.0,92,0.00,,,0.00,meteohub,2013-01-18 12:11:00,
2013-01-18 06:17:00,30.2,28.2,30.47,NE,53,0.0,0.0,92,0.00,,,0.00,meteohub,2013-01-18 12:17:00,
2013-01-18 06:22:00,30.2,28.2,30.47,NE,53,0.0,0.0,92,0.00,,,0.00,meteohub,2013-01-18 12:22:00,
2013-01-18 06:27:00,30.2,28.2,30.47,NE,53,0.0,0.0,92,0.00,,,0.00,meteohub,2013-01-18 12:27:00,
2013-01-18 06:32:00,30.2,28.2,30.47,NE,53,0.0,0.0,92,0.00,,,0.00,meteohub,2013-01-18 12:32:00,
2013-01-18 06:37:00,30.2,28.2,30.47,NE,53,0.0,0.0,92,0.00,,,0.00,meteohub,2013-01-18 12:37:00,
2013-01-18 06:42:00,30.2,28.2,30.47,NE,53,0.0,0.0,92,0.00,,,0.00,meteohub,2013-01-18 12:42:00,
2013-01-18 06:47:00,30.2,28.2,30.48,NE,53,0.0,0.0,92,0.00,,,0.00,meteohub,2013-01-18 12:47:00,
2013-01-18 06:52:00,30.2,28.2,30.48,NE,53,0.0,0.0,92,0.00,,,0.00,meteohub,2013-01-18 12:52:00,
2013-01-18 06:57:00,30.2,28.2,30.48,NE,53,0.0,0.0,92,0.00,,,0.00,meteohub,2013-01-18 12:57:00,
2013-01-18 07:02:00,30.2,28.2,30.48,NE,53,0.0,0.0,92,0.00,,,0.00,meteohub,2013-01-18 13:02:00,
2013-01-18 07:07:00,30.2,28.2,30.48,NE,53,0.0,0.0,92,0.00,,,0.00,meteohub,2013-01-18 13:07:00,
2013-01-18 07:12:00,30.4,28.4,30.48,NE,53,0.0,0.0,92,0.00,,,0.00,meteohub,2013-01-18 13:12:00,
2013-01-18 07:17:00,30.4,28.4,30.48,NE,53,0.0,0.0,92,0.00,,,0.00,meteohub,2013-01-18 13:17:00,
2013-01-18 07:22:00,30.4,28.4,30.48,NE,53,0.0,0.0,92,0.00,,,0.00,meteohub,2013-01-18 13:22:00,
2013-01-18 07:27:00,30.4,28.4,30.48,NE,53,0.0,0.0,92,0.00,,,0.00,meteohub,2013-01-18 13:27:00,
2013-01-18 07:33:00,30.2,28.2,30.47,NE,53,0.0,0.0,92,0.00,,,0.00,meteohub,2013-01-18 13:33:00,
2013-01-18 07:38:00,30.2,28.2,30.47,NE,53,0.0,0.0,92,0.00,,,0.00,meteohub,2013-01-18 13:38:00,
2013-01-18 07:44:00,30.2,28.2,30.47,NE,53,0.0,0.0,92,0.00,,,0.00,meteohub,2013-01-18 13:44:00,
2013-01-18 07:49:00,30.0,28.0,30.47,NE,53,0.0,0.0,92,0.00,,,0.00,meteohub,2013-01-18 13:49:00,
2013-01-18 07:54:00,30.0,28.0,30.47,NE,53,0.0,0.0,92,0.00,,,0.00,meteohub,2013-01-18 13:54:00,
2013-01-18 08:00:00,30.0,28.0,30.47,NE,53,0.0,0.0,92,0.00,,,0.00,meteohub,2013-01-18 14:00:00,
2013-01-18 08:05:00,30.0,28.0,30.47,NE,53,0.0,0.0,92,0.00,,,0.00,meteohub,2013-01-18 14:05:00,
2013-01-18 08:10:00,30.0,28.0,30.48,NE,53,0.0,0.0,92,0.00,,,0.00,meteohub,2013-01-18 14:10:00,
2013-01-18 08:16:00,29.8,27.9,30.48,NE,53,0.0,0.0,92,0.00,,,0.00,meteohub,2013-01-18 14:16:00,
2013-01-18 08:21:00,29.8,27.9,30.48,NE,53,0.0,0.0,92,0.00,,,0.00,meteohub,2013-01-18 14:21:00,
2013-01-18 08:26:00,29.8,27.9,30.48,NE,53,0.0,0.0,92,0.00,,,0.00,meteohub,2013-01-18 14:26:00,
2013-01-18 08:32:00,30.0,28.0,30.47,NE,53,0.0,0.0,92,0.00,,,0.00,meteohub,2013-01-18 14:32:00,
2013-01-18 08:37:00,30.2,28.4,30.47,NE,55,0.0,0.0,93,0.00,,,0.00,meteohub,2013-01-18 14:37:00,
2013-01-18 08:42:00,30.6,29.1,30.47,SSE,152,1.0,0.0,94,0.00,,,0.00,meteohub,2013-01-18 14:42:00,
2013-01-18 08:48:00,33.4,32.2,30.47,South,173,3.0,0.0,95,0.00,,,0.00,meteohub,2013-01-18 14:48:00,
2013-01-18 08:53:00,38.1,35.8,30.47,SE,132,3.0,0.0,91,0.00,,,0.00,meteohub,2013-01-18 14:53:00,
2013-01-18 08:58:00,40.3,36.1,30.47,SSE,154,1.0,0.0,85,0.00,,,0.00,meteohub,2013-01-18 14:58:00,
2013-01-18 09:03:00,41.5,36.5,30.48,South,178,2.0,9.0,82,0.00,,,0.00,meteohub,2013-01-18 15:03:00,
2013-01-18 09:09:00,42.4,36.7,30.48,SSE,164,4.0,9.0,80,0.00,,,0.00,meteohub,2013-01-18 15:09:00,
2013-01-18 09:14:00,43.2,37.0,30.48,South,178,2.0,9.0,79,0.00,,,0.00,meteohub,2013-01-18 15:14:00,
2013-01-18 09:19:00,43.7,37.2,30.48,South,182,6.0,8.0,78,0.00,,,0.00,meteohub,2013-01-18 15:19:00,
2013-01-18 09:24:00,44.2,37.6,30.48,South,176,4.0,8.0,77,0.00,,,0.00,meteohub,2013-01-18 15:24:00,
2013-01-18 09:30:00,44.6,37.2,30.48,SSE,166,5.0,13.0,75,0.00,,,0.00,meteohub,2013-01-18 15:30:00,
2013-01-18 09:35:00,45.0,37.6,30.48,South,170,10.0,13.0,75,0.00,,,0.00,meteohub,2013-01-18 15:35:00,
2013-01-18 09:40:00,45.1,37.0,30.49,South,175,9.0,13.0,73,0.00,,,0.00,meteohub,2013-01-18 15:40:00,
2013-01-18 09:46:00,45.7,37.6,30.49,South,175,9.0,11.0,73,0.00,,,0.00,meteohub,2013-01-18 15:46:00,
2013-01-18 09:51:00,46.2,37.8,30.49,SSE,164,6.0,11.0,72,0.00,,,0.00,meteohub,2013-01-18 15:51:00,
2013-01-18 09:56:00,46.6,38.5,30.49,South,179,6.0,11.0,73,0.00,,,0.00,meteohub,2013-01-18 15:56:00,
2013-01-18 10:01:00,47.1,38.5,30.49,SSE,160,3.0,12.0,72,0.00,,,0.00,meteohub,2013-01-18 16:01:00,
2013-01-18 10:07:00,48.0,39.0,30.48,SSE,148,2.0,12.0,71,0.00,,,0.00,meteohub,2013-01-18 16:07:00,
2013-01-18 10:12:00,48.9,39.6,30.48,South,178,9.0,12.0,70,0.00,,,0.00,meteohub,2013-01-18 16:12:00,
2013-01-18 10:17:00,49.6,38.7,30.49,SSE,160,3.0,15.0,66,0.00,,,0.00,meteohub,2013-01-18 16:17:00,
2013-01-18 10:22:00,50.0,38.3,30.48,SSE,155,6.0,15.0,64,0.00,,,0.00,meteohub,2013-01-18 16:22:00,
2013-01-18 10:27:00,50.4,38.3,30.48,SSE,161,12.0,15.0,63,0.00,,,0.00,meteohub,2013-01-18 16:27:00,
2013-01-18 10:32:00,50.7,39.0,30.48,SSE,167,5.0,15.0,64,0.00,,,0.00,meteohub,2013-01-18 16:32:00,
2013-01-18 10:37:00,51.4,39.2,30.48,South,174,7.0,15.0,63,0.00,,,0.00,meteohub,2013-01-18 16:37:00,
2013-01-18 10:42:00,52.0,39.0,30.48,SE,132,5.0,15.0,61,0.00,,,0.00,meteohub,2013-01-18 16:42:00,
2013-01-18 10:47:00,52.2,38.7,30.48,SSE,168,8.0,12.0,60,0.00,,,0.00,meteohub,2013-01-18 16:47:00,
2013-01-18 10:52:00,52.5,39.9,30.48,SSW,198,7.0,12.0,62,0.00,,,0.00,meteohub,2013-01-18 16:52:00,
2013-01-18 10:57:00,53.1,40.5,30.48,South,190,8.0,12.0,62,0.00,,,0.00,meteohub,2013-01-18 16:57:00,
2013-01-18 11:02:00,53.2,39.7,30.48,South,190,6.0,12.0,60,0.00,,,0.00,meteohub,2013-01-18 17:02:00,
2013-01-18 11:07:00,53.2,38.8,30.47,South,182,9.0,12.0,58,0.00,,,0.00,meteohub,2013-01-18 17:07:00,
2013-01-18 11:12:00,53.2,38.8,30.47,SSW,194,11.0,12.0,58,0.00,,,0.00,meteohub,2013-01-18 17:12:00,
2013-01-18 11:18:00,53.4,38.5,30.47,SSW,200,11.0,18.0,57,0.00,,,0.00,meteohub,2013-01-18 17:18:00,
2013-01-18 11:23:00,54.0,39.6,30.46,South,179,13.0,18.0,58,0.00,,,0.00,meteohub,2013-01-18 17:23:00,
2013-01-18 11:28:00,54.1,38.8,30.46,SSW,193,5.0,18.0,56,0.00,,,0.00,meteohub,2013-01-18 17:28:00,
2013-01-18 11:34:00,54.7,38.8,30.45,South,174,9.0,18.0,55,0.00,,,0.00,meteohub,2013-01-18 17:34:00,
2013-01-18 11:39:00,55.0,39.2,30.45,SSW,203,8.0,18.0,55,0.00,,,0.00,meteohub,2013-01-18 17:39:00,
2013-01-18 11:44:00,55.2,39.4,30.44,SSW,203,7.0,18.0,55,0.00,,,0.00,meteohub,2013-01-18 17:44:00,
2013-01-18 11:49:00,56.5,40.5,30.44,SSW,200,7.0,16.0,55,0.00,,,0.00,meteohub,2013-01-18 17:49:00,
2013-01-18 11:55:00,56.8,39.9,30.43,South,188,8.0,16.0,53,0.00,,,0.00,meteohub,2013-01-18 17:55:00,
2013-01-18 12:00:00,56.7,39.2,30.43,SSW,201,7.0,14.0,52,0.00,,,0.00,meteohub,2013-01-18 18:00:00,
2013-01-18 12:06:00,57.4,39.9,30.43,South,172,8.0,14.0,52,0.00,,,0.00,meteohub,2013-01-18 18:06:00,
2013-01-18 12:11:00,57.0,39.0,30.42,South,172,5.0,14.0,51,0.00,,,0.00,meteohub,2013-01-18 18:11:00,
2013-01-18 12:16:00,57.4,39.4,30.42,SSW,209,7.0,17.0,51,0.00,,,0.00,meteohub,2013-01-18 18:16:00,
2013-01-18 12:21:00,57.9,38.8,30.41,SSW,194,11.0,17.0,49,0.00,,,0.00,meteohub,2013-01-18 18:21:00,
2013-01-18 12:27:00,57.7,38.7,30.41,SSE,159,6.0,17.0,49,0.00,,,0.00,meteohub,2013-01-18 18:27:00,
2013-01-18 12:32:00,57.9,39.4,30.41,SW,234,8.0,17.0,50,0.00,,,0.00,meteohub,2013-01-18 18:32:00,
2013-01-18 12:37:00,58.3,38.7,30.40,SSW,196,10.0,17.0,48,0.00,,,0.00,meteohub,2013-01-18 18:37:00,
2013-01-18 12:42:00,59.0,39.4,30.40,South,171,9.0,14.0,48,0.00,,,0.00,meteohub,2013-01-18 18:42:00,
2013-01-18 12:47:00,59.4,39.2,30.40,SSW,199,7.0,14.0,47,0.00,,,0.00,meteohub,2013-01-18 18:47:00,
2013-01-18 12:52:00,59.5,38.7,30.40,SW,217,8.0,14.0,46,0.00,,,0.00,meteohub,2013-01-18 18:52:00,
2013-01-18 12:57:00,59.5,39.4,30.39,SSW,197,7.0,14.0,47,0.00,,,0.00,meteohub,2013-01-18 18:57:00,
2013-01-18 13:02:00,59.0,38.3,30.39,South,182,7.0,14.0,46,0.00,,,0.00,meteohub,2013-01-18 19:02:00,
2013-01-18 13:07:00,59.0,38.8,30.38,South,169,4.0,13.0,47,0.00,,,0.00,meteohub,2013-01-18 19:07:00,
2013-01-18 13:13:00,59.5,39.4,30.38,South,179,8.0,13.0,47,0.00,,,0.00,meteohub,2013-01-18 19:13:00,
2013-01-18 13:18:00,60.3,39.9,30.38,SW,220,8.0,13.0,47,0.00,,,0.00,meteohub,2013-01-18 19:18:00,
2013-01-18 13:23:00,60.4,39.0,30.38,South,186,6.0,13.0,45,0.00,,,0.00,meteohub,2013-01-18 19:23:00,
2013-01-18 13:29:00,60.4,39.6,30.37,SSW,205,7.0,13.0,46,0.00,,,0.00,meteohub,2013-01-18 19:29:00,
2013-01-18 13:34:00,60.3,38.3,30.36,South,185,6.0,13.0,44,0.00,,,0.00,meteohub,2013-01-18 19:34:00,
2013-01-18 13:39:00,60.1,38.7,30.36,SSW,197,4.0,14.0,45,0.00,,,0.00,meteohub,2013-01-18 19:39:00,
2013-01-18 13:45:00,60.3,38.8,30.36,SSW,193,7.0,14.0,45,0.00,,,0.00,meteohub,2013-01-18 19:45:00,
2013-01-18 13:50:00,60.4,39.6,30.36,South,178,5.0,14.0,46,0.00,,,0.00,meteohub,2013-01-18 19:50:00,
2013-01-18 13:55:00,61.2,39.0,30.35,South,183,7.0,14.0,44,0.00,,,0.00,meteohub,2013-01-18 19:55:00,
2013-01-18 14:00:00,61.2,39.0,30.35,SW,215,6.0,14.0,44,0.00,,,0.00,meteohub,2013-01-18 20:00:00,
2013-01-18 14:06:00,60.8,39.4,30.35,SSW,207,5.0,14.0,45,0.00,,,0.00,meteohub,2013-01-18 20:06:00,
2013-01-18 14:11:00,61.2,39.0,30.35,SSW,192,7.0,15.0,44,0.00,,,0.00,meteohub,2013-01-18 20:11:00,
2013-01-18 14:16:00,61.9,39.2,30.34,SSW,198,7.0,15.0,43,0.00,,,0.00,meteohub,2013-01-18 20:16:00,
2013-01-18 14:22:00,61.2,38.5,30.34,South,176,4.0,14.0,43,0.00,,,0.00,meteohub,2013-01-18 20:22:00,
2013-01-18 14:27:00,61.0,38.3,30.34,South,188,11.0,14.0,43,0.00,,,0.00,meteohub,2013-01-18 20:27:00,
2013-01-18 14:32:00,60.6,38.7,30.34,SW,215,9.0,14.0,44,0.00,,,0.00,meteohub,2013-01-18 20:32:00,
2013-01-18 14:38:00,61.5,38.8,30.34,South,190,18.0,18.0,43,0.00,,,0.00,meteohub,2013-01-18 20:38:00,
2013-01-18 14:43:00,61.3,38.7,30.34,SW,214,9.0,15.0,43,0.00,,,0.00,meteohub,2013-01-18 20:43:00,
2013-01-18 14:48:00,61.3,38.7,30.34,SW,225,6.0,15.0,43,0.00,,,0.00,meteohub,2013-01-18 20:48:00,
2013-01-18 14:53:00,61.5,38.8,30.34,SW,219,8.0,18.0,43,0.00,,,0.00,meteohub,2013-01-18 20:53:00,
2013-01-18 14:59:00,61.5,38.3,30.33,South,177,5.0,18.0,42,0.00,,,0.00,meteohub,2013-01-18 20:59:00,
2013-01-18 15:04:00,61.2,38.5,30.33,SSW,207,7.0,18.0,43,0.00,,,0.00,meteohub,2013-01-18 21:04:00,
2013-01-18 15:09:00,61.3,38.1,30.33,SSW,192,6.0,13.0,42,0.00,,,0.00,meteohub,2013-01-18 21:09:00,
2013-01-18 15:15:00,61.5,38.8,30.32,South,170,10.0,13.0,43,0.00,,,0.00,meteohub,2013-01-18 21:15:00,
2013-01-18 15:20:00,61.2,39.0,30.32,South,178,10.0,14.0,44,0.00,,,0.00,meteohub,2013-01-18 21:20:00,
2013-01-18 15:25:00,61.3,38.7,30.32,SSW,192,7.0,14.0,43,0.00,,,0.00,meteohub,2013-01-18 21:25:00,
2013-01-18 15:30:00,61.5,39.9,30.32,SSW,204,6.0,14.0,45,0.00,,,0.00,meteohub,2013-01-18 21:30:00,
2013-01-18 15:36:00,61.5,39.4,30.32,SSW,211,6.0,14.0,44,0.00,,,0.00,meteohub,2013-01-18 21:36:00,
2013-01-18 15:41:00,61.9,39.2,30.32,SSE,157,7.0,12.0,43,0.00,,,0.00,meteohub,2013-01-18 21:41:00,
2013-01-18 15:46:00,61.3,39.2,30.32,SW,214,10.0,12.0,44,0.00,,,0.00,meteohub,2013-01-18 21:46:00,
2013-01-18 15:52:00,61.3,39.2,30.31,SSE,158,2.0,12.0,44,0.00,,,0.00,meteohub,2013-01-18 21:52:00,
2013-01-18 15:57:00,61.3,39.2,30.32,SSW,206,5.0,12.0,44,0.00,,,0.00,meteohub,2013-01-18 21:57:00,
2013-01-18 16:02:00,61.3,38.7,30.31,South,190,5.0,12.0,43,0.00,,,0.00,meteohub,2013-01-18 22:02:00,
2013-01-18 16:07:00,61.2,39.0,30.31,South,184,5.0,12.0,44,0.00,,,0.00,meteohub,2013-01-18 22:07:00,
2013-01-18 16:12:00,61.3,39.2,30.31,South,178,8.0,14.0,44,0.00,,,0.00,meteohub,2013-01-18 22:12:00,
2013-01-18 16:17:00,61.2,38.5,30.31,South,179,5.0,14.0,43,0.00,,,0.00,meteohub,2013-01-18 22:17:00,
2013-01-18 16:22:00,61.2,38.5,30.31,SSW,202,5.0,12.0,43,0.00,,,0.00,meteohub,2013-01-18 22:22:00,
2013-01-18 16:28:00,61.2,38.5,30.31,SSW,194,11.0,12.0,43,0.00,,,0.00,meteohub,2013-01-18 22:28:00,
2013-01-18 16:33:00,61.0,38.3,30.31,SSW,211,7.0,12.0,43,0.00,,,0.00,meteohub,2013-01-18 22:33:00,
2013-01-18 16:38:00,61.0,38.3,30.30,SSW,193,8.0,13.0,43,0.00,,,0.00,meteohub,2013-01-18 22:38:00,
2013-01-18 16:44:00,60.4,38.5,30.31,SSW,198,7.0,13.0,44,0.00,,,0.00,meteohub,2013-01-18 22:44:00,
2013-01-18 16:49:00,60.4,39.0,30.30,South,189,6.0,13.0,45,0.00,,,0.00,meteohub,2013-01-18 22:49:00,
2013-01-18 16:54:00,60.3,38.3,30.30,SSW,208,7.0,11.0,44,0.00,,,0.00,meteohub,2013-01-18 22:54:00,
2013-01-18 16:59:00,60.1,38.1,30.30,South,175,8.0,11.0,44,0.00,,,0.00,meteohub,2013-01-18 22:59:00,
2013-01-18 17:05:00,59.7,38.3,30.30,SSE,154,4.0,11.0,45,0.00,,,0.00,meteohub,2013-01-18 23:05:00,
2013-01-18 17:10:00,59.5,38.1,30.30,South,180,4.0,11.0,45,0.00,,,0.00,meteohub,2013-01-18 23:10:00,
2013-01-18 17:15:00,59.2,38.5,30.30,South,173,6.0,11.0,46,0.00,,,0.00,meteohub,2013-01-18 23:15:00,
2013-01-18 17:20:00,58.8,38.7,30.30,SSE,148,3.0,10.0,47,0.00,,,0.00,meteohub,2013-01-18 23:20:00,
2013-01-18 17:26:00,58.5,38.8,30.30,South,173,3.0,10.0,48,0.00,,,0.00,meteohub,2013-01-18 23:26:00,
2013-01-18 17:31:00,58.1,39.0,30.30,South,169,5.0,10.0,49,0.00,,,0.00,meteohub,2013-01-18 23:31:00,
2013-01-18 17:36:00,57.6,38.5,30.30,SSE,167,3.0,10.0,49,0.00,,,0.00,meteohub,2013-01-18 23:36:00,
2013-01-18 17:42:00,57.2,38.3,30.30,SSE,163,5.0,9.0,49,0.00,,,0.00,meteohub,2013-01-18 23:42:00,
2013-01-18 17:47:00,56.7,38.3,30.30,SSE,160,4.0,9.0,50,0.00,,,0.00,meteohub,2013-01-18 23:47:00,
2013-01-18 17:52:00,56.5,38.7,30.30,South,178,3.0,7.0,51,0.00,,,0.00,meteohub,2013-01-18 23:52:00,
2013-01-18 17:57:00,55.9,38.5,30.30,SSE,167,4.0,7.0,52,0.00,,,0.00,meteohub,2013-01-18 23:57:00,
2013-01-18 18:02:00,55.6,38.7,30.30,South,185,4.0,7.0,53,0.00,,,0.00,meteohub,2013-01-19 00:02:00,
2013-01-18 18:07:00,55.2,38.3,30.30,South,184,3.0,7.0,53,0.00,,,0.00,meteohub,2013-01-19 00:07:00,
2013-01-18 18:12:00,54.9,38.1,30.30,South,180,4.0,7.0,53,0.00,,,0.00,meteohub,2013-01-19 00:12:00,
2013-01-18 18:17:00,54.7,38.3,30.30,SSE,165,4.0,7.0,54,0.00,,,0.00,meteohub,2013-01-19 00:17:00,
2013-01-18 18:22:00,54.3,37.9,30.30,South,169,4.0,7.0,54,0.00,,,0.00,meteohub,2013-01-19 00:22:00,
2013-01-18 18:27:00,54.0,38.1,30.30,South,182,3.0,6.0,55,0.00,,,0.00,meteohub,2013-01-19 00:27:00,
2013-01-18 18:32:00,53.8,37.9,30.30,South,174,4.0,6.0,55,0.00,,,0.00,meteohub,2013-01-19 00:32:00,
2013-01-18 18:37:00,53.6,37.8,30.30,South,171,3.0,6.0,55,0.00,,,0.00,meteohub,2013-01-19 00:37:00,
2013-01-18 18:42:00,53.4,38.1,30.30,South,174,3.0,6.0,56,0.00,,,0.00,meteohub,2013-01-19 00:42:00,
2013-01-18 18:47:00,53.2,37.9,30.30,South,171,3.0,6.0,56,0.00,,,0.00,meteohub,2013-01-19 00:47:00,
2013-01-18 18:52:00,53.1,37.8,30.30,South,172,2.0,5.0,56,0.00,,,0.00,meteohub,2013-01-19 00:52:00,
2013-01-18 18:57:00,52.9,38.1,30.30,South,172,2.0,5.0,57,0.00,,,0.00,meteohub,2013-01-19 00:57:00,
2013-01-18 19:03:00,52.3,37.6,30.30,South,170,2.0,5.0,57,0.00,,,0.00,meteohub,2013-01-19 01:03:00,
2013-01-18 19:08:00,51.8,37.9,30.30,SE,137,0.0,5.0,59,0.00,,,0.00,meteohub,2013-01-19 01:08:00,
2013-01-18 19:13:00,50.9,37.6,30.30,SE,134,1.0,5.0,60,0.00,,,0.00,meteohub,2013-01-19 01:13:00,
2013-01-18 19:19:00,50.5,37.2,30.30,SSE,160,3.0,3.0,60,0.00,,,0.00,meteohub,2013-01-19 01:19:00,
2013-01-18 19:24:00,50.7,37.8,30.30,South,178,1.0,3.0,61,0.00,,,0.00,meteohub,2013-01-19 01:24:00,
2013-01-18 19:29:00,50.4,37.4,30.30,SSE,166,1.0,3.0,61,0.00,,,0.00,meteohub,2013-01-19 01:29:00,
2013-01-18 19:34:00,50.2,37.6,30.30,SSE,153,0.0,5.0,62,0.00,,,0.00,meteohub,2013-01-19 01:34:00,
2013-01-18 19:39:00,49.6,37.2,30.30,SSE,167,1.0,5.0,62,0.00,,,0.00,meteohub,2013-01-19 01:39:00,
2013-01-18 19:45:00,49.6,37.6,30.30,SSE,157,1.0,5.0,63,0.00,,,0.00,meteohub,2013-01-19 01:45:00,
2013-01-18 19:50:00,49.8,37.4,30.30,SSE,167,2.0,4.0,62,0.00,,,0.00,meteohub,2013-01-19 01:50:00,
2013-01-18 19:55:00,49.6,37.6,30.30,SSE,162,0.0,4.0,63,0.00,,,0.00,meteohub,2013-01-19 01:55:00,
2013-01-18 20:00:00,49.1,37.4,30.30,SSE,163,0.0,3.0,64,0.00,,,0.00,meteohub,2013-01-19 02:00:00,
2013-01-18 20:05:00,48.6,37.4,30.30,SSE,163,0.0,3.0,65,0.00,,,0.00,meteohub,2013-01-19 02:05:00,
2013-01-18 20:11:00,47.8,37.0,30.30,SSE,163,0.0,3.0,66,0.00,,,0.00,meteohub,2013-01-19 02:11:00,
2013-01-18 20:16:00,47.5,37.0,30.30,SSE,163,0.0,1.0,67,0.00,,,0.00,meteohub,2013-01-19 02:16:00,
2013-01-18 20:21:00,47.1,37.0,30.30,SSE,163,0.0,1.0,68,0.00,,,0.00,meteohub,2013-01-19 02:21:00,
2013-01-18 20:27:00,46.9,36.9,30.30,SSE,168,3.0,3.0,68,0.00,,,0.00,meteohub,2013-01-19 02:27:00,
2013-01-18 20:32:00,47.3,37.2,30.30,SSE,165,4.0,4.0,68,0.00,,,0.00,meteohub,2013-01-19 02:32:00,
2013-01-18 20:37:00,48.0,37.6,30.30,South,179,3.0,4.0,67,0.00,,,0.00,meteohub,2013-01-19 02:37:00,
2013-01-18 20:42:00,48.4,37.6,30.30,SSE,165,2.0,4.0,66,0.00,,,0.00,meteohub,2013-01-19 02:42:00,
2013-01-18 20:48:00,48.6,37.8,30.30,South,186,6.0,6.0,66,0.00,,,0.00,meteohub,2013-01-19 02:48:00,
2013-01-18 20:53:00,48.6,37.4,30.30,SSW,196,4.0,6.0,65,0.00,,,0.00,meteohub,2013-01-19 02:53:00,
2013-01-18 20:58:00,48.6,37.8,30.30,South,190,4.0,6.0,66,0.00,,,0.00,meteohub,2013-01-19 02:58:00,
2013-01-18 21:04:00,48.6,37.4,30.29,SSW,196,7.0,8.0,65,0.00,,,0.00,meteohub,2013-01-19 03:04:00,
2013-01-18 21:09:00,48.6,37.4,30.29,South,191,6.0,8.0,65,0.00,,,0.00,meteohub,2013-01-19 03:09:00,
2013-01-18 21:14:00,48.6,37.8,30.29,South,186,5.0,8.0,66,0.00,,,0.00,meteohub,2013-01-19 03:14:00,
2013-01-18 21:19:00,48.6,37.8,30.29,South,178,4.0,8.0,66,0.00,,,0.00,meteohub,2013-01-19 03:19:00,
2013-01-18 21:25:00,48.6,37.8,30.29,South,176,4.0,8.0,66,0.00,,,0.00,meteohub,2013-01-19 03:25:00,
2013-01-18 21:30:00,48.6,37.8,30.29,SSE,167,3.0,8.0,66,0.00,,,0.00,meteohub,2013-01-19 03:30:00,
2013-01-18 21:35:00,48.4,37.6,30.29,SSW,196,4.0,7.0,66,0.00,,,0.00,meteohub,2013-01-19 03:35:00,
2013-01-18 21:41:00,48.4,37.6,30.29,SSW,193,6.0,7.0,66,0.00,,,0.00,meteohub,2013-01-19 03:41:00,
2013-01-18 21:46:00,48.4,37.6,30.29,SSE,165,5.0,9.0,66,0.00,,,0.00,meteohub,2013-01-19 03:46:00,
2013-01-18 21:51:00,48.4,37.6,30.29,South,178,4.0,9.0,66,0.00,,,0.00,meteohub,2013-01-19 03:51:00,
2013-01-18 21:57:00,48.2,37.4,30.29,SSE,159,3.0,9.0,66,0.00,,,0.00,meteohub,2013-01-19 03:57:00,
2013-01-18 22:02:00,48.0,37.6,30.29,South,188,5.0,8.0,67,0.00,,,0.00,meteohub,2013-01-19 04:02:00,
2013-01-18 22:07:00,48.0,37.6,30.29,South,190,4.0,8.0,67,0.00,,,0.00,meteohub,2013-01-19 04:07:00,
2013-01-18 22:12:00,47.8,37.4,30.29,SSW,196,6.0,8.0,67,0.00,,,0.00,meteohub,2013-01-19 04:12:00,
2013-01-18 22:18:00,47.8,37.4,30.28,South,169,4.0,9.0,67,0.00,,,0.00,meteohub,2013-01-19 04:18:00,
2013-01-18 22:23:00,47.8,37.4,30.28,South,169,4.0,9.0,67,0.00,,,0.00,meteohub,2013-01-19 04:23:00,
2013-01-18 22:28:00,47.8,37.4,30.28,South,182,7.0,9.0,67,0.00,,,0.00,meteohub,2013-01-19 04:28:00,
2013-01-18 22:33:00,47.8,37.8,30.27,South,182,3.0,10.0,68,0.00,,,0.00,meteohub,2013-01-19 04:33:00,
2013-01-18 22:39:00,47.8,37.4,30.27,South,173,4.0,10.0,67,0.00,,,0.00,meteohub,2013-01-19 04:39:00,
2013-01-18 22:44:00,47.8,37.8,30.27,South,182,6.0,10.0,68,0.00,,,0.00,meteohub,2013-01-19 04:44:00,
2013-01-18 22:49:00,47.8,37.4,30.27,South,188,4.0,10.0,67,0.00,,,0.00,meteohub,2013-01-19 04:49:00,
2013-01-18 22:54:00,47.8,37.8,30.27,South,181,7.0,10.0,68,0.00,,,0.00,meteohub,2013-01-19 04:54:00,
2013-01-18 23:02:00,47.7,37.6,30.27,SSW,201,4.0,10.0,68,0.00,,,0.00,meteohub,2013-01-19 05:02:00,
2013-01-18 23:03:00,47.8,37.8,30.27,South,190,4.0,10.0,68,0.00,,,0.00,meteohub,2013-01-19 05:03:00,
2013-01-18 23:05:00,47.7,37.6,30.27,South,181,5.0,10.0,68,0.00,,,0.00,meteohub,2013-01-19 05:05:00,
2013-01-18 23:07:00,47.7,37.6,30.27,South,175,2.0,10.0,68,0.00,,,0.00,meteohub,2013-01-19 05:07:00,
2013-01-18 23:12:00,47.5,37.4,30.27,South,184,8.0,10.0,68,0.00,,,0.00,meteohub,2013-01-19 05:12:00,
2013-01-18 23:18:00,47.3,37.6,30.27,SSW,200,6.0,9.0,69,0.00,,,0.00,meteohub,2013-01-19 05:18:00,
2013-01-18 23:23:00,47.3,37.6,30.27,South,183,4.0,9.0,69,0.00,,,0.00,meteohub,2013-01-19 05:23:00,
2013-01-18 23:28:00,47.1,37.4,30.27,South,170,5.0,9.0,69,0.00,,,0.00,meteohub,2013-01-19 05:28:00,
2013-01-18 23:33:00,46.9,37.2,30.26,South,174,2.0,9.0,69,0.00,,,0.00,meteohub,2013-01-19 05:33:00,
2013-01-18 23:39:00,46.9,37.6,30.26,South,182,5.0,9.0,70,0.00,,,0.00,meteohub,2013-01-19 05:39:00,
2013-01-18 23:44:00,46.8,37.6,30.26,SSW,205,5.0,9.0,70,0.00,,,0.00,meteohub,2013-01-19 05:44:00,
2013-01-18 23:49:00,46.8,37.6,30.26,South,171,6.0,12.0,70,0.00,,,0.00,meteohub,2013-01-19 05:49:00,
2013-01-18 23:54:00,46.6,37.4,30.25,South,173,5.0,12.0,70,0.00,,,0.00,meteohub,2013-01-19 05:54:00,